Location: Pine Mountain Observatory
(43.7910°N, 120.9377°W)
Time: 19:14:47
(UTC-08:00)

Cosmos 1867 - Visible Passes

Search period start: 18 December 2014 00:00
Search period end: 28 December 2014 00:00
Orbit: 778 x 798 km, 65.0° (Epoch: 18 December)

Date Brightness Start Highest point End Pass type
(mag) Time Alt. Az. Time Alt. Az. Time Alt. Az.
20 Dec 6.1 19:31:45 10° NNW 19:31:55 11° NNW 19:31:55 11° NNW visible
21 Dec 5.7 19:00:22 10° N 19:01:22 13° N 19:01:22 13° N visible
22 Dec 5.5 18:29:02 10° N 18:30:52 14° NNE 18:30:52 14° NNE visible
23 Dec 5.4 17:57:48 10° N 18:00:21 13° NNE 18:00:26 13° NNE visible
23 Dec 5.8 19:40:02 10° NNW 19:41:07 16° NNW 19:41:07 16° NNW visible
24 Dec 5.5 17:26:45 10° N 17:28:22 11° NNE 17:30:00 10° NE visible
24 Dec 5.2 19:08:32 10° NNW 19:10:46 22° N 19:10:46 22° N visible
25 Dec 4.7 18:37:04 10° NNW 18:40:31 27° NNE 18:40:31 27° NNE visible
25 Dec 6.1 20:20:25 10° NW 20:21:13 14° NW 20:21:13 14° NW visible
26 Dec 4.7 18:05:38 10° NNW 18:10:02 24° NE 18:10:23 24° NE visible
26 Dec 5.3 19:48:43 10° NW 19:51:06 27° NW 19:51:06 27° NW visible
27 Dec 4.9 17:34:15 10° N 17:38:11 20° NE 17:40:26 16° ENE visible
27 Dec 4.1 19:17:05 10° NNW 19:21:09 52° NNW 19:21:09 52° NNW visible
